When you browse on this site, cookies collect data to enhance your experience and personalize the content and advertising you see.
Visit our Privacy Policy to learn more. By continuing to use the site, you agree to this use of cookies and data.

Hourly Weather Aberdeen

Today, 4 August, Tuesday

Time Temperature Precipitation Wind Pressure Humidity
00:00 +9°C° 0 mm 3 mps 752 mmHg 87%
01:00 +9°C° 0 mm 3 mps 752 mmHg 89%
02:00 +8°C° 0 mm 3 mps 751 mmHg 90%
03:00 +8°C° 0 mm 3 mps 751 mmHg 92%
04:00 +9°C° 0 mm 3 mps 751 mmHg 90%
05:00 +9°C° 0 mm 2 mps 750 mmHg 88%
06:00 +10°C° 0 mm 2 mps 749 mmHg 86%
07:00 +10°C° 0.9 mm 3 mps 749 mmHg 89%
08:00 +11°C° 0.9 mm 4 mps 748 mmHg 92%
09:00 +10°C° 0.9 mm 5 mps 748 mmHg 95%
10:00 +10°C° 2 mm 5 mps 747 mmHg 96%
11:00 +10°C° 2 mm 5 mps 746 mmHg 96%
12:00 +10°C° 2 mm 5 mps 745 mmHg 97%
13:00 +12°C° 1.8 mm 5 mps 744 mmHg 97%
14:00 +13°C° 1.8 mm 4 mps 743 mmHg 97%
15:00 +13°C° 1.8 mm 4 mps 742 mmHg 97%
16:00 +14°C° 1.9 mm 6 mps 742 mmHg 97%
17:00 +15°C° 1.9 mm 7 mps 741 mmHg 96%
18:00 +16°C° 1.9 mm 8 mps 740 mmHg 96%
19:00 +16°C° 0.4 mm 7 mps 741 mmHg 96%
20:00 +16°C° 0.4 mm 6 mps 741 mmHg 96%
21:00 +16°C° 0.4 mm 6 mps 741 mmHg 96%
22:00 +16°C° 0.2 mm 5 mps 741 mmHg 95%
23:00 +16°C° 0.2 mm 5 mps 741 mmHg 95%

Tomorrow, 5 August, Wednesday

Time Temperature Precipitation Wind Pressure Humidity
00:00 +16°C° 0.2 mm 5 mps 741 mmHg 94%
01:00 +15°C° 0 mm 5 mps 742 mmHg 94%
02:00 +14°C° 0 mm 4 mps 742 mmHg 94%
03:00 +13°C° 0 mm 4 mps 742 mmHg 94%
04:00 +13°C° 0.1 mm 3 mps 742 mmHg 94%
05:00 +14°C° 0.1 mm 3 mps 742 mmHg 95%
06:00 +15°C° 0.1 mm 2 mps 742 mmHg 95%
07:00 +15°C° 0.1 mm 2 mps 742 mmHg 95%
08:00 +16°C° 0.1 mm 2 mps 743 mmHg 94%
09:00 +16°C° 0.1 mm 2 mps 743 mmHg 94%
10:00 +17°C° 0.1 mm 3 mps 744 mmHg 93%
11:00 +17°C° 0.1 mm 3 mps 744 mmHg 93%
12:00 +18°C° 0.1 mm 3 mps 744 mmHg 93%
13:00 +18°C° 0.2 mm 3 mps 744 mmHg 93%
14:00 +18°C° 0.2 mm 3 mps 745 mmHg 94%
15:00 +18°C° 0.2 mm 3 mps 745 mmHg 95%
16:00 +17°C° 0.3 mm 3 mps 745 mmHg 95%
17:00 +17°C° 0.3 mm 3 mps 746 mmHg 95%
18:00 +17°C° 0.3 mm 3 mps 746 mmHg 96%
19:00 +17°C° 0 mm 3 mps 746 mmHg 96%
20:00 +17°C° 0 mm 3 mps 747 mmHg 96%
21:00 +16°C° 0 mm 2 mps 748 mmHg 96%
22:00 +16°C° 0 mm 2 mps 748 mmHg 96%
23:00 +15°C° 0 mm 2 mps 748 mmHg 96%

Day after tomorrow, 6 August, Thursday

Time Temperature Precipitation Wind Pressure Humidity
00:00 +14°C° 0 mm 3 mps 749 mmHg 97%
01:00 +14°C° 0 mm 2 mps 749 mmHg 96%
02:00 +14°C° 0 mm 2 mps 749 mmHg 96%
03:00 +13°C° 0 mm 2 mps 750 mmHg 95%
04:00 +14°C° 0 mm 2 mps 750 mmHg 94%
05:00 +14°C° 0 mm 2 mps 751 mmHg 93%
06:00 +14°C° 0 mm 2 mps 751 mmHg 92%
07:00 +16°C° 0 mm 2 mps 751 mmHg 88%
08:00 +17°C° 0 mm 2 mps 752 mmHg 84%
09:00 +19°C° 0 mm 2 mps 752 mmHg 79%
10:00 +20°C° 0 mm 2 mps 752 mmHg 76%
11:00 +21°C° 0 mm 2 mps 753 mmHg 73%
12:00 +22°C° 0 mm 3 mps 753 mmHg 70%
13:00 +22°C° 0 mm 3 mps 753 mmHg 70%
14:00 +24°C° 0 mm 3 mps 753 mmHg 71%
15:00 +24°C° 0 mm 3 mps 753 mmHg 71%
16:00 +22°C° 0 mm 3 mps 752 mmHg 75%
17:00 +22°C° 0 mm 3 mps 752 mmHg 78%
18:00 +21°C° 0 mm 3 mps 752 mmHg 81%
19:00 +20°C° 0 mm 3 mps 752 mmHg 84%
20:00 +19°C° 0 mm 3 mps 752 mmHg 87%
21:00 +18°C° 0 mm 2 mps 752 mmHg 90%
22:00 +18°C° 0 mm 2 mps 752 mmHg 90%
23:00 +18°C° 0 mm 2 mps 752 mmHg 91%

7 August, Friday

Time Temperature Precipitation Wind Pressure Humidity
00:00 +18°C° 0 mm 2 mps 752 mmHg 91%
01:00 +18°C° 0 mm 2 mps 752 mmHg 90%
02:00 +18°C° 0 mm 3 mps 752 mmHg 89%
03:00 +17°C° 0 mm 3 mps 752 mmHg 89%
04:00 +17°C° 0 mm 3 mps 752 mmHg 89%
05:00 +16°C° 0 mm 3 mps 752 mmHg 90%
06:00 +16°C° 0 mm 3 mps 752 mmHg 90%
07:00 +17°C° 0 mm 4 mps 752 mmHg 87%
08:00 +18°C° 0 mm 4 mps 753 mmHg 83%
09:00 +19°C° 0 mm 5 mps 753 mmHg 79%
10:00 +20°C° 0.1 mm 5 mps 753 mmHg 77%
11:00 +20°C° 0.1 mm 5 mps 753 mmHg 75%
12:00 +21°C° 0.1 mm 5 mps 753 mmHg 73%
13:00 +21°C° 0.1 mm 5 mps 753 mmHg 72%
14:00 +22°C° 0.1 mm 5 mps 753 mmHg 71%
15:00 +22°C° 0.1 mm 5 mps 753 mmHg 71%
16:00 +21°C° 0.1 mm 5 mps 753 mmHg 73%
17:00 +21°C° 0.1 mm 4 mps 753 mmHg 75%
18:00 +21°C° 0.1 mm 4 mps 753 mmHg 78%
19:00 +19°C° 0 mm 3 mps 753 mmHg 81%
20:00 +18°C° 0 mm 3 mps 753 mmHg 84%
21:00 +17°C° 0 mm 2 mps 753 mmHg 88%
22:00 +17°C° 0 mm 2 mps 754 mmHg 88%
23:00 +16°C° 0 mm 2 mps 754 mmHg 89%

8 August, Saturday

Time Temperature Precipitation Wind Pressure Humidity
00:00 +16°C° 0 mm 1 mps 754 mmHg 90%
01:00 +16°C° 0.1 mm 1 mps 753 mmHg 90%
02:00 +16°C° 0.1 mm 1 mps 753 mmHg 91%
03:00 +14°C° 0.1 mm 0 mps 753 mmHg 92%
04:00 +16°C° 0.1 mm 1 mps 753 mmHg 92%
05:00 +16°C° 0.1 mm 1 mps 753 mmHg 92%
06:00 +16°C° 0.1 mm 1 mps 753 mmHg 92%
07:00 +17°C° 0.1 mm 2 mps 754 mmHg 87%
08:00 +18°C° 0.1 mm 3 mps 754 mmHg 82%
09:00 +19°C° 0.1 mm 4 mps 754 mmHg 77%
10:00 +19°C° 0.3 mm 4 mps 755 mmHg 74%
11:00 +19°C° 0.3 mm 4 mps 755 mmHg 72%
12:00 +18°C° 0.3 mm 4 mps 755 mmHg 69%
13:00 +18°C° 0 mm 4 mps 756 mmHg 68%
14:00 +18°C° 0 mm 4 mps 756 mmHg 67%
15:00 +18°C° 0 mm 3 mps 757 mmHg 66%
16:00 +18°C° 0 mm 3 mps 757 mmHg 68%
17:00 +17°C° 0 mm 2 mps 757 mmHg 69%
18:00 +17°C° 0 mm 2 mps 758 mmHg 70%
19:00 +15°C° 0 mm 2 mps 758 mmHg 72%
20:00 +14°C° 0 mm 2 mps 758 mmHg 75%
21:00 +13°C° 0 mm 2 mps 759 mmHg 77%
22:00 +12°C° 0 mm 2 mps 759 mmHg 79%
23:00 +10°C° 0 mm 2 mps 759 mmHg 80%

9 August, Sunday

Time Temperature Precipitation Wind Pressure Humidity
00:00 +11°C° 0 mm 1 mps 759 mmHg 82%
01:00 +10°C° 0 mm 1 mps 759 mmHg 82%
02:00 +10°C° 0 mm 1 mps 759 mmHg 83%
03:00 +9°C° 0 mm 1 mps 759 mmHg 84%
04:00 +10°C° 0 mm 1 mps 759 mmHg 83%
05:00 +10°C° 0 mm 1 mps 760 mmHg 83%
06:00 +11°C° 0 mm 1 mps 760 mmHg 82%
07:00 +12°C° 0 mm 1 mps 760 mmHg 77%
08:00 +14°C° 0 mm 1 mps 760 mmHg 71%
09:00 +15°C° 0 mm 1 mps 760 mmHg 66%
10:00 +16°C° 0 mm 1 mps 760 mmHg 62%
11:00 +17°C° 0 mm 2 mps 760 mmHg 58%
12:00 +18°C° 0 mm 2 mps 760 mmHg 55%
13:00 +18°C° 0 mm 2 mps 760 mmHg 56%
14:00 +18°C° 0 mm 3 mps 759 mmHg 56%
15:00 +18°C° 0 mm 3 mps 759 mmHg 57%
16:00 +18°C° 0 mm 3 mps 759 mmHg 63%
17:00 +17°C° 0 mm 3 mps 759 mmHg 69%
18:00 +16°C° 0 mm 3 mps 759 mmHg 75%
19:00 +14°C° 0 mm 3 mps 759 mmHg 80%
20:00 +13°C° 0 mm 2 mps 759 mmHg 86%
21:00 +12°C° 0 mm 1 mps 759 mmHg 92%
22:00 +12°C° 0 mm 1 mps 759 mmHg 92%
23:00 +11°C° 0 mm 1 mps 759 mmHg 92%
Show more